Skip Page Navigation
NASA JPL Caltech
NASA Logo - Jet Propulsion Laboratory + View the NASA Portal
+ Center for Near-Earth Object Studies
JPL Home Earth Solar System Stars & Galaxies Technology
JPL Solar System Dynamics
BODIES ORBITS EPHEMERIDES TOOLS PHYSICAL DATA DISCOVERY FAQ SITE MAP
IMPORTANT: The SSD Announcement email list is now available. Major changes are coming in the near future, including possible hostname and/or URL changes. To be notified of such changes, subscribe to this email list.

Please visit this page for more details.


JPL Small-Body Database Browser
Search: [ help ]  
467317 (2000 QW7)
Classification: Amor [NEO, PHA]          SPK-ID: 2467317
Ephemeris | Orbit Diagram | Orbital Elements | Mission Design | Physical Parameters | Discovery Circumstances | Close-Approach Data ]

[ hide orbit diagram ]

For accurate long-term ephemerides, please instead use our Horizons system.This orbit viewer was implemented using two-body methods, and hence should not be used for determining accurate long-term trajectories (over several years or decades) or planetary encounter circumstances.


[ revert to old Java-based viewer ]

Orbital Elements at Epoch 2459000.5 (2020-May-31.0) TDB
Reference: JPL 106 (heliocentric ecliptic J2000)
 Element Value Uncertainty (1-sigma)   Units 
e .4688235637426422 8.238e-09  
a 1.948763873208454 2.1636e-09 au
q 1.035137449277952 1.5215e-08 au
i 4.151895441444038 2.1083e-06 deg
node 158.568623098261 7.4969e-06 deg
peri 190.9375909749385 1.0411e-05 deg
M 94.2876272875228 2.9056e-06 deg
tp 2458740.250764129667
(2019-Sep-13.75076413)
7.8655e-06 TDB
period 993.6587398431418
2.72
1.6548e-06
4.531e-09
d
yr
n .3622974222083825 6.0337e-10 deg/d
Q 2.862390297138957 3.178e-09 au
  Orbit Determination Parameters
   # obs. used (total)      1218  
   # delay obs. used      0  
   # Doppler obs. used      2  
   data-arc span      7110 days (19.47 yr)  
   first obs. used      2000-08-03  
   last obs. used      2020-01-21  
   planetary ephem.      DE431  
   SB-pert. ephem.      SB431-N16  
   condition code      0  
   norm. resid. RMS      .36955  
   source      ORB  
   producer      Otto Matic  
   solution date      2020-May-11 05:56:54  

Additional Information
 Earth MOID = .0302226 au 
 Jupiter MOID = 2.57426 au 
 T_jup = 3.748 
[ show covariance matrix ]

Ephemeris | Orbit Diagram | Orbital Elements | Mission Design | Physical Parameters | Discovery Circumstances | Close-Approach Data ]

Physical Parameter Table
Parameter Symbol Value Units Sigma Reference Notes
absolute magnitude H 19.6   n/a MPO503636  
rotation period rot_per 71.3 h n/a LCDB (Rev. 2019-August); Warner et al., 2009 Result based on less than full coverage, so that the period may be wrong by 30 percent or so.
Published Reference List:
[Pravec, P.; Wolf, M.; Sarounova, L. (2000) http://www.asu.cas.cz/~ppravec/neo.htm]

467317 (2000 QW7)          Discovered 2000-Aug-26 by NEAT at Haleakala
Reference: Last Updated: 2016-05-24

[ hide close-approach data ]
Close-Approach Data   ...sorted by Date/Time (TDB)
Date/Time (TDB) Time Uncertainty
(days_HH:MM)
Body Nominal Distance (au) Minimum Distance (au) Maximum Distance (au) V-relative (km/s) V-infinity (km/s) JD (TDB) Time Uncertainty (minutes) Semi-major axis (km) Semi-minor axis (km) range-LOV angle (deg) N-sigma BP Orbit Ref. Reference Modified
1902-Oct-01 18:01 < 00:01 Earth 0.0922567514635717 0.0922557078132877 0.0922577951141178 8.15463152991632 8.15108907609429 2416024.250868717 0.247837467233166 52.6155154041404 2.50158825749049 8.59350722717227 691483.084399309 T 106 CATAB v2.0f-lin.ifort 2020-May-11 05:57:11 2020-May-11 05:57
1913-Jul-14 11:45 < 00:01 Earth 0.453628093932814 0.453627203846175 0.453628984019453 19.4099104175352 19.4096078012693 2419962.989858593 0.0787357971999537 44.490672084953 2.98357307966777 -3.97673168838496 1867703.19431247 T 106 CATAB v2.0f-lin.ifort 2020-May-11 05:57:11 2020-May-11 05:57
1932-Aug-28 20:50 < 00:01 Earth 0.0339797521369079 0.0339796304264324 0.0339798738476538 6.64568006918462 6.63387037170091 2426948.368254171 0.100151745730252 7.9291099408612 2.1313612782626 41.9649312428194 1626453.47513014 T 106 CATAB v2.0f-lin.ifort 2020-May-11 05:57:11 2020-May-11 05:57
1951-Oct-10 03:17 < 00:01 Earth 0.142409310331809 0.142408373864463 0.142410246799293 9.83108549975263 9.82918216778067 2433929.636540096 0.129620916607113 47.2359733172057 2.80603147137537 8.73897585668675 978918.185927084 T 106 CATAB v2.0f-lin.ifort 2020-May-11 05:57:11 2020-May-11 05:57
1970-Oct-30 15:08 < 00:01 Earth 0.424989657930679 0.424988847348217 0.424990468513165 18.4838935776273 18.4835543864709 2440890.130210286 0.0409367298457119 40.4846992575899 3.02743578455927 3.26126185101047 1676343.28916366 T 106 CATAB v2.0f-lin.ifort 2020-May-11 05:57:11 2020-May-11 05:57
1981-Jul-31 18:28 < 00:01 Earth 0.209329936709683 0.209329384628631 0.209330488790747 12.2132548631061 12.212212622173 2444817.269375067 0.0610776455924851 27.5709520817584 2.45103030697027 -3.23252234380936 1070435.0542261 T 106 CATAB v2.0f-lin.ifort 2020-May-11 05:57:11 2020-May-11 05:57
2000-Sep-01 12:56 < 00:01 Earth 0.0316549292784491 0.031654879417591 0.0316549791393073 6.48075493424866 6.46775379976165 2451789.038778817 0.011486584049439 2.48715491104944 1.50273129738003 0.818976325956293 1987044.8821377 T 106 CATAB v2.0f-lin.ifort 2020-May-11 05:57:11 2020-May-11 05:57
2019-Sep-14 23:54 < 00:01 Earth 0.0356358862389541 0.0356358360851216 0.0356359363927887 6.41863988297589 6.40698047744531 2458741.495547887 0.0516846474590899 2.62136800367839 2.11311934137438 -30.3685025399225 2257034.36842364 T 106 CATAB v2.0f-lin.ifort 2020-May-11 05:57:11 2020-May-11 05:57
2038-Oct-19 23:01 < 00:01 Earth 0.237831580021465 0.237830947779116 0.237832212263867 12.8491712857555 12.8482993540844 2465716.458860076 0.0914466269203904 31.9513628638043 3.31018511065612 9.42456407551261 1645828.11992081 T 106 CATAB v2.0f-lin.ifort 2020-May-11 05:57:11 2020-May-11 05:57
2049-Jul-20 14:41 < 00:01 Earth 0.385205439525218 0.385204513985428 0.385206365065008 17.4384275438972 17.438030884668 2469643.111976825 0.0837604029098352 46.234237362085 2.64057425552989 -3.43096699811006 1532232.9850226 T 106 CATAB v2.0f-lin.ifort 2020-May-11 05:57:11 2020-May-11 05:57
2068-Aug-12 20:13 < 00:01 Earth 0.105526709346518 0.105525692747602 0.105527725945428 8.95191938150133 8.94909838704256 2476606.342231248 0.208693307864436 50.685212241071 2.21856193052677 0.637725840152168 262328.605848545 T 106 CATAB v2.0f-lin.ifort 2020-May-11 05:57:11 2020-May-11 05:57
2087-Sep-19 12:12 < 00:01 Earth 0.0406747085618269 0.0406745886226386 0.0406748285010151 6.56852479392944 6.55854434377552 2483583.008525327 0.0581192115234325 5.98097367021384 1.8076765971949 -1.31962982870203 966437.95638646 T 106 CATAB v2.0f-lin.ifort 2020-May-11 05:57:11 2020-May-11 05:57
2106-Nov-02 16:04 < 00:01 Earth 0.422450569472614 0.422449116636585 0.422452022308691 18.4488970017653 18.4485551246155 2490566.169494968 0.105159009148508 72.8027085787748 3.69759703002944 5.68720596862725 1616179.83273763 T 106 CATAB v2.0f-lin.ifort 2020-May-11 05:57:11 2020-May-11 05:57
2117-Aug-10 04:20 < 00:01 Earth 0.140729156377917 0.140727341216989 0.140730971538845 10.11308767388 10.1112153339263 2494499.680233051 0.302964187717246 90.5114241907076 2.2548755546238 -0.923181718585673 219839.623443732 T 106 CATAB v2.0f-lin.ifort 2020-May-11 05:57:11 2020-May-11 05:57
2136-Oct-10 07:55 < 00:01 Earth 0.124663436613996 0.124662207798284 0.124664665430148 9.14305169367366 9.1407137307662 2501500.829623562 0.227778070275096 62.3947300869865 2.95870042304122 10.945066598118 977280.252609271 T 106 CATAB v2.0f-lin.ifort 2020-May-11 05:57:11 2020-May-11 05:57
2147-Jul-20 13:51 < 00:01 Earth 0.427297625127211 0.427297461290436 0.427297788963987 18.7679103461922 18.7675780925108 2505436.077019988 0.0337192638500263 8.18038563600242 2.69321807120669 -3.10814781556774 6606892.8896602 T 106 CATAB v2.0f-lin.ifort 2020-May-11 05:57:11 2020-May-11 05:57
2166-Aug-30 17:22 < 00:01 Earth 0.0400829755337973 0.0400820331834444 0.0400839178927331 6.79945850552862 6.78967508704796 2512417.223366316 0.601539817581049 55.3738987244611 1.95270257050496 32.0110481121176 1533388.9734159 T 106 CATAB v2.0f-lin.ifort 2020-May-11 05:57:11 2020-May-11 05:57
2185-Oct-08 18:47 00:01 Earth 0.106622962842242 0.106618482741641 0.106627442951248 8.56972145720979 8.56680491133228 2519396.282396647 1.09565352764132 228.341735672722 2.87783672958802 12.0147737717898 913761.114341424 T 106 CATAB v2.0f-lin.ifort 2020-May-11 05:57:11 2020-May-11 05:57
Ephemeris | Orbit Diagram | Orbital Elements | Mission Design | Physical Parameters | Discovery Circumstances | Close-Approach Data ]
ABOUT SSD CREDITS/AWARDS PRIVACY/COPYRIGHT GLOSSARY LINKS
FirstGov 2020-May-27 23:35 UT
(server date/time)  
NASA Home Page
Site Manager:   Ryan S. Park
Webmaster  Alan B. Chamberlin